Time,TemperatureF,DewpointF,PressureIn,WindDirection,WindDirectionDegrees,WindSpeedMPH,WindSpeedGustMPH,Humidity,HourlyPrecipIn,Conditions,Clouds,dailyrainin,SoftwareType,DateUTC
2013-09-28 00:22:00,36.0,29.0,-100.00,South,185,5.0,7.0,77,0.00,,,0.00,,2013-09-28 06:22:00,
2013-09-28 00:32:00,36.0,29.0,-100.00,South,185,5.0,7.0,77,0.00,,,0.00,,2013-09-28 06:32:00,
2013-09-28 00:42:00,36.0,29.0,-100.00,South,185,5.0,7.0,77,0.00,,,0.00,,2013-09-28 06:42:00,
2013-09-28 00:52:00,36.0,29.0,-100.00,South,185,5.0,7.0,77,0.00,,,0.00,,2013-09-28 06:52:00,
2013-09-28 01:22:00,36.0,30.0,-100.00,South,180,7.0,12.0,78,0.00,,,0.00,,2013-09-28 07:22:00,
2013-09-28 01:32:00,36.0,30.0,-100.00,South,180,7.0,12.0,78,0.00,,,0.00,,2013-09-28 07:32:00,
2013-09-28 01:42:00,36.0,30.0,-100.00,South,180,7.0,12.0,78,0.00,,,0.00,,2013-09-28 07:42:00,
2013-09-28 01:52:00,36.0,30.0,-100.00,South,180,7.0,12.0,78,0.00,,,0.00,,2013-09-28 07:52:00,
2013-09-28 02:21:00,36.0,30.0,-100.00,South,191,6.0,10.0,78,0.00,,,0.00,,2013-09-28 08:21:00,
2013-09-28 02:32:00,36.0,30.0,-100.00,South,191,6.0,10.0,78,0.00,,,0.00,,2013-09-28 08:32:00,
2013-09-28 02:42:00,36.0,30.0,-100.00,South,191,6.0,10.0,78,0.00,,,0.00,,2013-09-28 08:42:00,
2013-09-28 02:53:00,36.0,30.0,-100.00,South,191,6.0,10.0,78,0.00,,,0.00,,2013-09-28 08:53:00,
2013-09-28 03:22:00,36.0,30.0,-100.00,SW,214,7.0,10.0,78,0.00,,,0.00,,2013-09-28 09:22:00,
2013-09-28 03:33:00,36.0,30.0,-100.00,SW,214,7.0,10.0,78,0.00,,,0.00,,2013-09-28 09:33:00,
2013-09-28 03:43:00,36.0,30.0,-100.00,SW,214,7.0,10.0,78,0.00,,,0.00,,2013-09-28 09:43:00,
2013-09-28 03:53:00,36.0,30.0,-100.00,SW,214,7.0,10.0,78,0.00,,,0.00,,2013-09-28 09:53:00,
2013-09-28 04:22:00,36.0,31.0,-100.00,South,190,6.0,12.0,83,0.00,,,0.00,,2013-09-28 10:22:00,
2013-09-28 04:32:00,36.0,31.0,-100.00,South,190,6.0,12.0,83,0.00,,,0.00,,2013-09-28 10:32:00,
2013-09-28 04:42:00,36.0,31.0,-100.00,South,190,6.0,12.0,83,0.00,,,0.00,,2013-09-28 10:42:00,
2013-09-28 04:52:00,36.0,31.0,-100.00,South,190,6.0,12.0,83,0.00,,,0.00,,2013-09-28 10:52:00,
2013-09-28 05:22:00,33.0,32.0,-100.00,SW,215,2.0,5.0,96,0.02,,,0.02,,2013-09-28 11:22:00,
2013-09-28 05:33:00,33.0,32.0,-100.00,SW,215,2.0,5.0,96,0.02,,,0.02,,2013-09-28 11:33:00,
2013-09-28 05:42:00,33.0,32.0,-100.00,SW,215,2.0,5.0,96,0.02,,,0.02,,2013-09-28 11:42:00,
2013-09-28 05:52:00,33.0,32.0,-100.00,SW,215,2.0,5.0,96,0.02,,,0.02,,2013-09-28 11:52:00,
2013-09-28 06:22:00,32.0,32.0,-100.00,SSW,204,2.0,6.0,97,0.03,,,0.05,,2013-09-28 12:22:00,
2013-09-28 06:32:00,32.0,32.0,-100.00,SSW,204,2.0,6.0,97,0.03,,,0.05,,2013-09-28 12:32:00,
2013-09-28 06:42:00,32.0,32.0,-100.00,SSW,204,2.0,6.0,97,0.03,,,0.05,,2013-09-28 12:42:00,
2013-09-28 06:52:00,32.0,32.0,-100.00,SSW,204,2.0,6.0,97,0.03,,,0.05,,2013-09-28 12:52:00,
2013-09-28 07:22:00,33.0,32.0,-100.00,SW,236,2.0,5.0,97,0.01,,,0.06,,2013-09-28 13:22:00,
2013-09-28 07:32:00,33.0,32.0,-100.00,SW,236,2.0,5.0,97,0.01,,,0.06,,2013-09-28 13:32:00,
2013-09-28 07:42:00,33.0,32.0,-100.00,SW,236,2.0,5.0,97,0.01,,,0.06,,2013-09-28 13:42:00,
2013-09-28 07:52:00,33.0,32.0,-100.00,SW,236,2.0,5.0,97,0.01,,,0.06,,2013-09-28 13:52:00,
2013-09-28 08:21:00,33.0,33.0,-100.00,SW,220,2.0,2.0,98,0.00,,,0.06,,2013-09-28 14:21:00,
2013-09-28 08:32:00,33.0,33.0,-100.00,SW,220,2.0,2.0,98,0.00,,,0.06,,2013-09-28 14:32:00,
2013-09-28 08:42:00,33.0,33.0,-100.00,SW,220,2.0,2.0,98,0.00,,,0.06,,2013-09-28 14:42:00,
2013-09-28 08:52:00,33.0,33.0,-100.00,SW,220,2.0,2.0,98,0.00,,,0.06,,2013-09-28 14:52:00,
2013-09-28 08:54:00,34.0,34.0,-100.00,SSW,210,4.0,7.0,97,0.00,,,0.06,,2013-09-28 14:54:00,
2013-09-28 09:22:00,34.0,34.0,-100.00,SSW,210,4.0,7.0,97,0.00,,,0.06,,2013-09-28 15:22:00,
2013-09-28 09:34:00,34.0,34.0,-100.00,SSW,210,4.0,7.0,97,0.00,,,0.06,,2013-09-28 15:34:00,
2013-09-28 09:44:00,34.0,34.0,-100.00,SSW,210,4.0,7.0,97,0.00,,,0.06,,2013-09-28 15:44:00,
2013-09-28 09:54:00,35.0,34.0,-100.00,South,186,4.0,5.0,96,0.00,,,0.06,,2013-09-28 15:54:00,
2013-09-28 10:24:00,35.0,34.0,-100.00,South,186,4.0,5.0,96,0.00,,,0.06,,2013-09-28 16:24:00,
2013-09-28 10:34:00,35.0,34.0,-100.00,South,186,4.0,5.0,96,0.00,,,0.06,,2013-09-28 16:34:00,
2013-09-28 10:43:00,35.0,34.0,-100.00,South,186,4.0,5.0,96,0.00,,,0.06,,2013-09-28 16:43:00,
2013-09-28 11:23:00,37.0,36.0,-100.00,South,186,4.0,7.0,95,0.00,,,0.06,,2013-09-28 17:23:00,
2013-09-28 11:34:00,37.0,36.0,-100.00,South,186,4.0,7.0,95,0.00,,,0.06,,2013-09-28 17:34:00,
2013-09-28 11:43:00,37.0,36.0,-100.00,South,186,4.0,7.0,95,0.00,,,0.06,,2013-09-28 17:43:00,
2013-09-28 11:52:00,37.0,36.0,-100.00,South,186,4.0,7.0,95,0.00,,,0.06,,2013-09-28 17:52:00,
2013-09-28 12:22:00,38.0,36.0,-100.00,South,173,4.0,5.0,94,0.00,,,0.06,,2013-09-28 18:22:00,
2013-09-28 12:32:00,38.0,36.0,-100.00,South,173,4.0,5.0,94,0.00,,,0.06,,2013-09-28 18:32:00,
2013-09-28 12:42:00,38.0,36.0,-100.00,South,173,4.0,5.0,94,0.00,,,0.06,,2013-09-28 18:42:00,
2013-09-28 12:52:00,38.0,36.0,-100.00,South,173,4.0,5.0,94,0.00,,,0.06,,2013-09-28 18:52:00,
2013-09-28 13:21:00,39.0,37.0,-100.00,East,92,2.0,4.0,93,0.00,,,0.06,,2013-09-28 19:21:00,
2013-09-28 13:32:00,39.0,37.0,-100.00,East,92,2.0,4.0,93,0.00,,,0.06,,2013-09-28 19:32:00,
2013-09-28 13:42:00,39.0,37.0,-100.00,East,92,2.0,4.0,93,0.00,,,0.06,,2013-09-28 19:42:00,
2013-09-28 13:52:00,39.0,37.0,-100.00,East,92,2.0,4.0,93,0.00,,,0.06,,2013-09-28 19:52:00,
2013-09-28 14:22:00,43.0,39.0,-100.00,SSW,213,4.0,9.0,84,0.00,,,0.06,,2013-09-28 20:22:00,
2013-09-28 14:32:00,43.0,39.0,-100.00,SSW,213,4.0,9.0,84,0.00,,,0.06,,2013-09-28 20:32:00,
2013-09-28 14:43:00,43.0,39.0,-100.00,SSW,213,4.0,9.0,84,0.00,,,0.06,,2013-09-28 20:43:00,
2013-09-28 14:52:00,43.0,39.0,-100.00,SSW,213,4.0,9.0,84,0.00,,,0.06,,2013-09-28 20:52:00,
2013-09-28 14:54:00,46.0,35.0,-100.00,SW,223,10.0,20.0,65,0.00,,,0.06,,2013-09-28 20:54:00,
2013-09-28 15:22:00,46.0,35.0,-100.00,SW,223,10.0,20.0,65,0.00,,,0.06,,2013-09-28 21:22:00,
2013-09-28 15:34:00,46.0,35.0,-100.00,SW,223,10.0,20.0,65,0.00,,,0.06,,2013-09-28 21:34:00,
2013-09-28 15:44:00,46.0,35.0,-100.00,SW,223,10.0,20.0,65,0.00,,,0.06,,2013-09-28 21:44:00,
2013-09-28 16:23:00,49.0,33.0,-100.00,SSW,199,6.0,10.0,53,0.00,,,0.06,,2013-09-28 22:23:00,
2013-09-28 16:33:00,49.0,33.0,-100.00,SSW,199,6.0,10.0,53,0.00,,,0.06,,2013-09-28 22:33:00,
2013-09-28 16:43:00,49.0,33.0,-100.00,SSW,199,6.0,10.0,53,0.00,,,0.06,,2013-09-28 22:43:00,
2013-09-28 16:53:00,49.0,33.0,-100.00,SSW,199,6.0,10.0,53,0.00,,,0.06,,2013-09-28 22:53:00,
2013-09-28 17:22:00,48.0,33.0,-100.00,South,181,6.0,9.0,56,0.00,,,0.06,,2013-09-28 23:22:00,
2013-09-28 17:34:00,48.0,33.0,-100.00,South,181,6.0,9.0,56,0.00,,,0.06,,2013-09-28 23:34:00,
2013-09-28 17:43:00,48.0,33.0,-100.00,South,181,6.0,9.0,56,0.00,,,0.06,,2013-09-28 23:43:00,
2013-09-28 17:52:00,48.0,33.0,-100.00,South,181,6.0,9.0,56,0.00,,,0.06,,2013-09-28 23:52:00,
2013-09-28 18:22:00,47.0,35.0,-100.00,South,177,8.0,14.0,63,0.00,,,0.06,,2013-09-29 00:22:00,
2013-09-28 18:32:00,47.0,35.0,-100.00,South,177,8.0,14.0,63,0.00,,,0.06,,2013-09-29 00:32:00,
2013-09-28 18:43:00,47.0,35.0,-100.00,South,177,8.0,14.0,63,0.00,,,0.06,,2013-09-29 00:43:00,
2013-09-28 18:52:00,47.0,35.0,-100.00,South,177,8.0,14.0,63,0.00,,,0.06,,2013-09-29 00:52:00,
2013-09-28 19:21:00,45.0,35.0,-100.00,SSE,162,7.0,12.0,67,0.00,,,0.06,,2013-09-29 01:21:00,
2013-09-28 19:32:00,45.0,35.0,-100.00,SSE,162,7.0,12.0,67,0.00,,,0.06,,2013-09-29 01:32:00,
2013-09-28 19:43:00,45.0,35.0,-100.00,SSE,162,7.0,12.0,67,0.00,,,0.06,,2013-09-29 01:43:00,
2013-09-28 19:52:00,45.0,35.0,-100.00,SSE,162,7.0,12.0,67,0.00,,,0.06,,2013-09-29 01:52:00,
2013-09-28 20:22:00,45.0,36.0,-100.00,SW,225,1.0,5.0,71,0.00,,,0.06,,2013-09-29 02:22:00,
2013-09-28 20:32:00,45.0,36.0,-100.00,SW,225,1.0,5.0,71,0.00,,,0.06,,2013-09-29 02:32:00,
2013-09-28 20:43:00,45.0,36.0,-100.00,SW,225,1.0,5.0,71,0.00,,,0.06,,2013-09-29 02:43:00,
2013-09-28 20:53:00,45.0,36.0,-100.00,SW,225,1.0,5.0,71,0.00,,,0.06,,2013-09-29 02:53:00,
2013-09-28 20:54:00,44.0,35.0,-100.00,South,180,10.0,15.0,69,0.00,,,0.06,,2013-09-29 02:54:00,
2013-09-28 21:23:00,44.0,35.0,-100.00,South,180,10.0,15.0,69,0.00,,,0.06,,2013-09-29 03:23:00,
2013-09-28 21:34:00,44.0,35.0,-100.00,South,180,10.0,15.0,69,0.00,,,0.06,,2013-09-29 03:34:00,
2013-09-28 21:44:00,44.0,35.0,-100.00,South,180,10.0,15.0,69,0.00,,,0.06,,2013-09-29 03:44:00,
2013-09-28 21:54:00,44.0,35.0,-100.00,SSW,197,5.0,8.0,70,0.00,,,0.06,,2013-09-29 03:54:00,
2013-09-28 22:24:00,44.0,35.0,-100.00,SSW,197,5.0,8.0,70,0.00,,,0.06,,2013-09-29 04:24:00,
2013-09-28 22:34:00,44.0,35.0,-100.00,SSW,197,5.0,8.0,70,0.00,,,0.06,,2013-09-29 04:34:00,
2013-09-28 22:44:00,44.0,35.0,-100.00,SSW,197,5.0,8.0,70,0.00,,,0.06,,2013-09-29 04:44:00,
2013-09-28 23:22:00,44.0,34.0,-100.00,South,179,4.0,7.0,69,0.00,,,0.06,,2013-09-29 05:22:00,
2013-09-28 23:34:00,44.0,34.0,-100.00,South,179,4.0,7.0,69,0.00,,,0.06,,2013-09-29 05:34:00,
2013-09-28 23:43:00,44.0,34.0,-100.00,South,179,4.0,7.0,69,0.00,,,0.06,,2013-09-29 05:43:00,
2013-09-28 23:52:00,44.0,34.0,-100.00,South,179,4.0,7.0,69,0.00,,,0.06,,2013-09-29 05:52:00,